Wind_Gust
3 3 2 1 3 4 5 12 7 11 7 9 7 5 12 4 8 11 11 5 4 5 3 6 3 4 2 5 11 11 8 5 3 16 12 7 3 12 12 16 16 16 17 16 14 15 16 18 20 22 22 23 23 22 21 21 21 21 22 22 22 22 22 23 23 23 24 24 25 25 26 27 26 27 26 25 25 24 23 24 23 24 24 22 25 25 24 22 24 24 24 24 24 24 24 26 26
2 3 3 1 3 2 4 6 9 5 10 6 14 4 10 4 1 9 9 5 5 5 2 11 12 16 16 18 16 6 10 13 5 3 7 7 12 12 12 15 14 17 16 15 14 15 14 18 20 22 23 24 24 23 22 22 22 22 23 23 23 22 23 23 24 23 24 24 25 25 26 26 26 26 25 25 24 23 21 22 23 24 24 23 22 23 22 22 23 23 23 23 23 24 23 23 23
2 2 1 6 6 8 5 10 10 4 4 8 16 15 5 4 9 13 12 10 7 4 4 6 7 6 5 4 12 4 3 3 9 8 11 4 15 7 11 12 14 15 16 15 15 15 15 16 20 22 25 24 24 24 23 22 22 21 22 21 22 22 23 23 23 22 23 24 25 25 24 25 25 25 25 25 24 23 22 21 22 24 23 22 21 22 21 21 21 21 22 22 21 22 21 21 20
3 2 6 6 5 9 5 7 8 13 6 12 11 11 9 6 11 9 10 7 9 5 6 3 7 4 7 16 8 4 8 4 7 7 17 7 7 14 14 14 14 16 15 15 16 15 14 19 21 23 26 25 24 23 23 22 23 23 22 21 21 22 21 21 21 22 22 24 24 24 24 24 24 24 24 25 23 23 22 22 22 24 22 20 21 20 20 20 20 20 20 21 22 21 20 19 18
1 3 3 8 11 5 7 6 8 8 9 12 8 8 7 8 11 8 9 4 11 9 5 3 10 7 6 9 4 8 3 6 5 8 13 8 10 14 16 16 16 18 17 16 17 15 15 23 21 22 23 24 23 23 23 23 23 23 22 21 23 21 20 21 22 21 22 22 23 23 23 23 23 23 23 23 22 22 22 21 22 23 22 20 19 18 18 17 18 19 19 20 19 20 19 18 18
4 4 5 5 6 7 13 5 4 6 13 9 4 11 8 8 6 5 13 11 8 6 5 4 6 5 13 9 10 9 4 5 7 7 11 13 16 17 18 18 19 19 18 17 16 15 17 20 19 21 21 23 24 24 23 24 23 22 21 22 22 22 20 21 22 22 22 22 22 23 22 22 22 22 22 22 22 23 23 22 23 22 21 21 21 21 19 19 18 17 18 18 19 19 19 18 17
4 8 10 7 5 12 10 5 5 8 17 13 11 10 10 5 6 7 13 17 4 8 3 6 12 14 16 7 9 12 10 7 11 12 11 17 16 16 17 17 19 18 16 16 16 16 18 19 19 19 20 23 24 24 24 24 23 21 21 21 20 21 21 20 21 20 21 21 21 22 22 22 21 22 23 22 22 22 21 20 22 22 21 20 20 20 19 18 18 17 17 18 19 18 18 17 17
2 5 5 7 7 4 4 3 6 10 11 13 6 8 14 13 5 9 7 4 12 10 5 6 5 15 5 5 8 11 10 8 14 17 20 17 17 17 15 16 16 14 14 13 12 13 19 18 20 20 21 21 23 24 23 23 22 21 21 19 20 20 20 20 20 20 18 20 21 21 22 21 21 21 21 21 21 20 20 21 21 21 20 20 20 19 18 18 17 17 17 18 18 18 18 18 18
6 11 2 10 5 7 3 5 9 7 14 8 16 14 18 16 9 7 8 5 7 2 4 5 2 11 7 12 9 5 10 14 15 17 17 17 18 15 13 12 16 16 14 15 14 15 16 18 20 20 21 21 21 23 23 22 21 20 20 20 19 16 17 17 20 19 16 16 19 21 21 20 20 20 19 19 20 20 21 20 18 18 18 19 19 19 19 18 18 17 18 18 18 18 18 17 18
5 5 6 10 9 6 4 11 2 9 9 7 8 16 13 10 5 6 5 11 6 7 4 9 8 17 14 16 9 6 7 11 15 12 12 12 12 12 13 13 13 18 16 16 15 16 16 21 19 19 19 19 20 21 20 19 19 18 19 19 17 15 15 16 16 16 15 15 17 18 18 18 18 18 17 18 20 20 20 19 17 17 18 19 19 18 18 18 18 17 18 18 17 17 17 18 18
9 10 6 8 3 5 7 9 8 11 7 10 15 16 18 14 8 5 7 5 2 7 9 9 17 15 12 9 8 4 9 9 15 19 12 12 13 15 14 11 12 14 19 17 15 16 17 19 23 19 19 19 19 19 18 18 18 16 16 15 15 16 15 15 16 17 15 14 16 17 17 18 17 18 19 20 19 18 18 17 16 15 17 18 18 18 19 18 17 17 17 17 16 14 15 16 19
6 5 5 6 7 10 7 6 8 13 12 9 13 14 3 5 6 5 4 5 3 6 7 4 18 21 18 9 7 8 9 10 9 14 13 11 12 9 10 11 12 12 15 17 17 16 16 17 17 20 20 19 19 18 18 18 18 16 16 16 16 16 16 15 15 14 14 14 14 15 16 17 17 18 19 18 17 18 17 16 15 15 17 18 18 18 18 17 17 16 16 16 15 13 14 17 19
7 4 8 7 7 3 3 3 9 4 10 11 8 7 3 8 3 7 4 10 5 6 5 4 25 4 11 7 8 3 10 9 5 3 8 8 9 10 9 11 13 15 14 13 16 15 15 15 16 16 17 22 19 18 18 18 17 16 16 16 16 16 16 16 15 15 14 14 14 15 15 14 15 17 18 18 18 16 15 14 14 14 17 18 18 17 17 16 16 16 16 15 15 15 14 17 19
8 12 11 9 3 4 5 6 3 5 10 10 5 8 6 3 1 7 12 13 10 5 3 12 13 19 16 12 9 12 13 6 4 4 6 6 8 11 11 13 13 13 14 15 15 13 13 13 15 16 19 18 16 18 19 20 18 18 17 15 15 16 15 15 15 14 14 14 15 15 13 13 16 18 17 17 17 16 14 13 13 14 16 18 17 17 16 16 16 16 16 16 16 16 18 19 19
5 5 7 6 4 1 6 7 4 5 11 4 9 7 11 4 4 6 10 16 11 5 11 8 15 6 18 18 13 20 18 10 7 5 7 7 7 9 12 12 14 14 15 15 14 16 15 13 13 14 15 17 17 16 15 19 19 19 16 15 15 15 15 15 15 14 15 14 15 15 15 16 17 17 17 17 16 16 14 12 12 13 15 17 17 16 16 16 15 15 17 18 17 17 18 18 18
8 9 6 6 6 5 10 5 2 1 15 2 9 7 2 7 3 4 7 6 13 6 6 10 6 6 12 18 13 25 17 12 7 8 9 11 10 9 11 11 12 13 14 16 17 16 15 14 13 14 13 13 12 12 11 11 17 19 17 15 16 16 15 14 14 15 17 17 17 17 18 17 15 15 18 16 16 15 13 9 11 12 14 16 16 16 16 15 15 16 17 17 17 18 19 20 19
3 9 4 6 6 5 8 8 6 5 12 8 11 14 9 5 3 10 8 10 16 7 8 8 7 7 21 14 9 17 15 11 10 11 12 14 15 15 14 13 14 13 13 15 13 13 11 11 9 8 8 10 10 9 8 9 15 18 16 17 18 18 15 16 15 15 16 15 15 14 14 11 9 11 13 10 14 10 9 11 10 11 13 14 15 14 14 14 15 15 16 16 16 17 18 20 19
4 8 11 4 8 5 10 9 12 2 5 9 15 7 6 4 5 10 10 17 17 14 15 7 16 14 8 6 13 14 13 15 12 15 16 17 17 19 18 17 18 17 13 12 8 8 9 8 9 10 11 11 9 9 9 9 13 15 11 12 12 16 15 14 14 11 12 9 14 13 9 10 9 9 10 11 6 9 10 10 9 10 12 13 13 13 13 13 14 15 18 17 15 13 15 15 15
8 7 8 12 10 15 8 7 8 4 9 7 10 10 2 4 2 4 12 2 4 17 13 11 14 13 13 12 12 13 12 13 14 14 19 21 21 21 21 15 16 14 15 8 7 6 6 9 10 10 11 12 12 11 12 10 10 9 10 10 10 11 12 10 7 9 5 9 9 9 9 8 9 8 9 11 8 10 10 11 9 9 10 12 12 13 12 12 13 17 18 16 15 14 12 11 11
9 10 8 13 10 9 8 6 8 5 5 15 12 10 4 6 3 2 7 6 6 15 16 10 12 14 12 10 11 12 12 13 13 14 15 18 18 19 16 15 13 14 12 7 9 7 9 9 10 10 12 11 11 11 10 10 10 9 9 9 8 8 9 9 8 8 9 9 10 9 9 9 8 7 13 16 12 7 7 10 9 8 9 10 10 8 11 12 18 19 18 16 11 9 11 11 12
7 7 11 10 6 6 9 7 12 12 6 7 6 6 9 4 3 6 11 10 3 5 12 17 19 19 15 14 15 13 14 14 13 12 14 15 12 12 15 18 12 9 7 10 8 9 9 10 11 11 11 10 9 10 10 9 10 10 9 10 10 9 8 8 8 7 9 10 10 10 9 9 8 8 8 9 7 7 5 4 5 6 6 7 8 7 7 9 10 11 12 12 10 12 12 11 12
7 11 4 6 1 4 13 7 8 7 7 4 4 4 7 3 5 10 11 8 9 13 15 13 23 22 24 21 17 14 16 16 14 14 17 17 17 16 9 8 9 9 9 9 8 10 10 10 11 11 11 8 9 10 10 13 14 10 11 11 10 9 9 8 8 7 8 10 10 10 9 9 9 9 8 9 8 7 7 5 4 5 6 5 6 6 6 7 9 10 11 10 9 9 11 10 10
13 6 4 8 9 11 4 3 6 3 10 7 9 3 7 3 3 5 7 8 7 8 11 18 24 25 22 18 20 17 16 18 17 19 19 16 13 11 9 8 9 10 10 8 9 9 11 11 11 11 9 9 9 9 10 10 11 10 10 11 10 10 9 9 8 8 7 7 8 11 11 10 9 9 9 9 8 7 7 6 5 3 5 6 4 5 5 7 9 11 11 9 9 10 10 9 10
7 13 1 6 5 13 9 11 10 7 7 12 5 13 7 5 5 5 4 6 3 3 17 20 18 17 17 20 17 22 22 21 22 19 18 20 22 21 14 9 8 8 10 9 11 9 11 12 10 10 9 10 9 10 11 11 11 11 12 14 11 14 12 10 9 9 8 8 8 9 10 10 10 9 10 9 7 6 7 6 4 4 4 5 4 5 3 6 9 10 11 8 10 9 11 9 9
7 11 5 8 4 10 10 9 10 7 10 11 8 11 18 3 4 4 5 2 4 10 17 19 20 18 15 13 16 12 13 11 14 14 8 4 3 6 7 8 9 10 12 11 12 12 12 13 11 11 9 9 9 11 12 10 12 12 13 12 11 14 12 11 10 9 9 8 8 8 9 11 9 9 10 9 8 7 7 6 6 5 4 4 4 4 3 4 9 9 10 9 9 10 10 10 9
11 11 5 5 9 8 8 8 10 8 8 6 4 11 13 5 7 3 4 4 8 15 17 20 21 19 18 16 16 15 15 17 13 13 14 4 5 8 8 9 10 12 11 12 13 12 12 14 13 12 12 11 11 12 10 12 14 13 15 12 12 12 12 12 10 10 9 9 8 8 9 10 10 11 11 9 10 8 7 5 6 5 6 4 4 4 2 4 8 9 8 9 8 9 10 9 10
7 7 8 8 11 7 7 7 8 5 8 3 10 7 10 6 7 10 2 4 13 15 17 17 23 21 18 16 14 13 14 17 18 9 4 5 5 10 9 9 9 10 11 12 13 13 13 14 13 13 13 13 12 13 12 13 12 14 15 12 12 12 13 12 10 10 10 10 10 8 8 9 10 10 11 11 8 8 7 6 6 4 5 5 5 3 3 5 7 7 7 9 9 9 9 8 9
5 6 1 5 8 6 9 5 13 2 10 10 9 11 3 4 4 9 6 6 14 20 15 16 13 17 18 15 14 12 12 10 5 6 13 12 19 15 12 14 11 10 14 13 12 13 14 14 15 15 15 14 14 13 13 13 13 13 13 13 11 12 11 12 10 9 9 8 8 8 8 9 9 9 10 10 9 9 7 7 6 6 6 5 5 4 3 6 8 7 6 6 8 10 10 8 7
2 4 7 10 9 11 4 10 7 9 9 7 9 2 4 3 5 5 9 9 10 18 18 16 16 15 13 12 11 10 13 8 7 11 17 17 5 7 10 9 13 15 11 13 14 15 16 15 17 15 15 14 14 15 15 14 12 13 14 13 11 14 12 12 11 11 10 9 9 9 9 9 9 11 10 11 10 9 8 7 7 7 6 6 5 4 3 6 8 8 8 7 9 11 11 9 9
1 4 4 6 9 7 5 3 3 7 6 9 9 7 14 14 5 7 3 8 9 13 14 15 13 12 12 11 13 10 6 7 12 18 14 9 4 6 9 8 8 8 8 9 11 14 13 12 13 14 15 16 15 14 14 14 14 13 13 13 12 13 12 12 12 11 10 9 9 8 9 9 10 10 11 9 9 9 8 8 8 7 6 6 7 7 6 6 9 9 8 9 10 10 10 10 11
7 3 7 4 1 8 7 3 1 9 5 6 2 6 16 9 4 10 7 11 17 15 13 16 14 13 13 13 12 13 9 11 14 13 12 7 4 5 8 8 9 8 10 10 13 12 12 13 14 14 15 14 15 15 16 15 14 14 14 13 13 13 12 12 11 10 10 10 9 8 9 10 10 10 9 11 9 9 9 9 8 9 7 6 8 7 8 7 9 9 10 11 10 10 10 11 12
4 7 7 8 5 11 12 6 3 9 3 4 6 4 13 14 11 10 8 11 12 16 16 16 16 16 15 14 15 14 12 9 10 11 11 9 7 8 9 9 9 9 12 13 12 12 14 13 13 12 12 13 14 16 14 14 15 14 13 13 12 12 11 11 11 10 10 9 9 8 8 8 9 9 9 9 10 8 9 9 10 7 7 8 7 8 8 9 8 9 7 12 13 11 13 12 12
9 7 4 4 2 9 6 2 2 6 4 2 4 12 7 5 7 6 2 11 11 15 15 17 16 17 16 16 16 11 9 9 11 15 14 13 11 10 9 8 9 10 11 14 16 16 16 15 16 11 13 15 14 14 11 10 13 12 13 15 13 12 12 10 10 10 9 8 8 7 8 9 8 8 8 8 9 9 8 8 8 8 8 9 9 9 9 9 11 11 7 5 10 14 15 14 13
5 5 7 5 3 2 6 13 2 4 4 3 5 7 7 4 4 12 6 5 8 8 13 15 16 16 16 15 13 11 12 12 19 20 21 15 13 11 9 8 7 8 9 13 15 19 18 17 16 13 12 13 13 12 12 13 11 10 11 12 12 11 11 10 9 11 10 9 10 12 11 10 8 7 7 7 7 8 7 7 7 8 8 9 9 9 9 8 9 12 10 6 8 14 15 15 14
7 4 5 3 2 2 2 5 3 4 5 2 3 3 13 10 12 10 8 9 7 11 9 9 11 9 11 12 13 12 13 15 24 20 15 12 9 7 6 5 5 8 9 12 13 13 12 13 12 13 14 13 9 9 9 8 7 7 7 10 12 11 10 10 11 10 11 15 14 11 10 10 9 7 7 8 9 8 7 6 6 6 8 9 10 9 9 10 9 9 12 9 9 8 12 12 14
8 9 8 5 3 3 3 8 7 2 4 3 7 11 12 13 12 16 15 10 3 5 6 4 5 7 9 10 9 11 12 17 17 10 7 8 6 4 5 5 6 6 6 8 10 12 13 13 11 12 13 13 8 9 10 10 10 10 11 8 11 12 12 12 10 11 9 14 14 12 11 10 8 4 6 9 10 10 9 8 7 6 8 10 11 11 10 11 13 11 10 13 15 15 12 13 14
8 7 10 2 1 7 7 6 11 1 4 7 8 8 13 13 13 13 11 11 20 17 9 3 6 10 11 7 9 10 8 15 7 5 5 6 8 7 8 6 7 4 5 7 9 11 13 15 13 14 13 10 11 13 14 14 15 14 12 12 13 13 14 15 12 11 12 12 12 14 13 13 14 16 15 11 12 11 11 8 7 8 8 10 11 12 12 11 11 12 13 10 16 17 14 11 13
8 8 2 3 2 5 6 4 5 4 5 7 11 18 13 10 12 15 16 23 23 18 14 11 5 6 6 4 6 6 8 9 7 5 5 5 8 9 8 7 6 10 8 9 11 11 10 10 12 13 10 11 12 12 11 13 13 18 19 17 14 12 13 15 14 12 12 10 10 14 14 13 15 16 15 12 11 12 11 10 10 11 10 10 9 9 9 10 11 12 14 11 5 13 15 15 17
4 6 4 2 8 9 12 5 4 4 5 12 13 20 9 10 13 18 22 16 12 11 12 11 12 11 8 2 2 4 6 9 7 10 9 9 6 5 6 7 7 5 5 8 8 9 10 11 13 13 13 7 8 9 11 14 12 12 13 13 15 12 6 8 12 13 15 16 15 16 14 12 12 13 14 13 13 12 12 12 11 11 12 8 11 7 11 13 13 15 15 16 13 7 11 11 13
9 6 5 8 6 2 8 9 4 5 7 7 13 21 7 10 8 14 17 15 10 12 12 15 16 17 13 12 9 7 5 7 6 10 9 7 7 7 5 6 6 7 10 16 16 18 19 19 20 17 16 11 6 5 7 6 6 2 3 4 5 5 10 9 13 13 14 14 16 14 12 14 16 16 14 13 12 11 11 12 12 14 14 12 14 14 8 11 12 12 13 13 17 16 14 13 9
2 6 7 5 3 5 9 6 9 3 4 9 16 15 12 16 16 20 17 10 20 23 21 24 22 19 15 15 18 14 8 4 6 8 7 7 7 10 13 12 14 18 22 19 19 21 25 22 20 16 15 8 6 4 2 4 6 4 3 4 4 5 6 9 11 13 15 17 17 15 16 16 16 14 14 13 12 12 10 9 15 14 15 10 11 12 15 16 14 14 15 15 15 18 16 13 12
5 7 11 11 5 6 5 5 9 13 7 6 7 14 8 7 8 12 14 18 25 22 26 25 23 22 22 23 21 20 19 13 11 13 17 18 17 18 20 19 15 15 15 17 20 20 12 8 9 14 13 7 7 4 3 4 8 10 8 9 10 9 8 11 16 19 19 17 20 14 13 16 13 12 11 11 11 9 10 10 12 13 11 10 10 12 13 12 14 13 15 16 13 12 20 17 17
8 16 14 9 8 4 1 6 3 4 7 4 4 14 12 7 14 14 13 19 21 22 24 21 21 22 21 20 20 22 22 20 19 19 18 18 17 17 15 16 15 16 14 20 21 19 11 11 13 14 8 6 9 9 6 5 5 7 12 13 12 13 13 15 11 12 16 12 10 13 15 13 12 12 10 9 9 9 10 12 12 13 13 11 7 9 11 16 17 17 12 12 14 12 11 19 19
14 6 16 11 7 6 7 5 8 8 5 6 9 11 17 6 7 5 10 18 20 22 21 21 21 20 21 20 21 21 22 20 19 16 16 16 17 14 11 10 9 9 11 14 18 21 22 19 10 8 11 11 11 12 13 12 12 9 10 9 10 12 15 13 11 10 10 12 11 13 12 12 12 12 11 9 6 6 10 12 12 12 13 11 15 13 15 13 13 9 12 12 11 15 16 17 16
15 7 16 15 14 12 8 7 5 3 2 9 10 7 16 5 7 5 5 16 17 18 18 19 20 20 20 21 22 20 20 19 21 21 19 17 15 14 10 9 9 7 5 11 18 19 18 18 15 11 13 12 12 12 13 13 11 8 10 11 12 12 12 10 7 10 8 11 13 11 11 12 10 9 11 11 15 14 11 10 10 10 17 18 18 16 12 13 15 15 13 11 12 13 13 11 16
12 11 10 8 10 9 7 6 8 3 8 9 6 5 15 5 8 10 4 12 13 13 14 15 17 17 19 21 20 21 19 18 19 19 17 16 14 14 11 9 9 10 10 12 17 18 17 15 11 13 15 12 10 10 10 9 7 6 10 10 14 16 13 9 5 7 9 8 11 9 10 10 12 16 14 13 12 11 12 12 13 13 12 13 15 16 13 14 14 15 16 15 14 14 11 12 16
9 13 12 10 12 6 5 11 8 9 4 13 5 3 11 9 7 5 7 9 8 8 9 13 16 18 19 18 19 19 19 18 18 18 19 19 18 17 14 12 12 13 11 12 12 15 14 13 11 11 8 6 3 1 4 3 4 7 12 14 14 16 14 9 10 9 9 8 9 10 9 14 16 14 12 10 12 12 10 10 11 12 13 12 12 10 16 15 14 15 14 13 14 14 13 12 10
11 12 11 12 7 9 10 8 10 12 11 10 2 4 4 11 4 4 12 12 10 10 12 14 16 17 18 17 19 19 19 18 16 17 19 20 21 23 24 23 18 14 15 14 10 9 10 10 11 13 11 5 2 4 9 8 9 9 8 9 13 14 12 11 10 10 10 10 10 11 9 9 8 10 12 13 14 13 12 13 12 11 12 11 12 11 13 12 12 12 13 14 13 12 11 12 11
9 11 14 17 12 11 9 6 11 10 16 3 3 4 8 9 4 8 11 13 12 12 14 15 15 16 17 18 20 20 19 19 22 21 20 20 20 19 20 21 22 21 20 16 13 9 8 8 8 11 12 9 3 6 8 9 9 9 9 9 12 12 11 9 9 9 10 13 14 14 14 13 10 12 15 15 14 15 14 14 13 13 12 13 12 10 12 11 12 12 13 13 13 14 15 14 13
9 14 16 16 14 12 13 7 9 8 9 3 5 5 11 5 7 9 13 12 13 15 16 16 16 17 17 19 19 20 21 20 20 19 20 20 21 21 22 20 21 22 22 22 19 16 12 11 9 8 8 7 5 6 6 7 8 9 10 10 10 8 6 8 11 11 10 10 11 14 15 16 16 18 17 17 15 14 14 14 14 14 11 12 13 13 12 13 12 13 13 13 13 14 12 14 14
18 8 19 17 18 23 15 14 17 15 11 5 7 10 13 12 6 7 10 10 14 15 15 16 17 15 15 16 18 19 20 20 21 20 20 21 20 19 20 21 21 21 22 21 21 21 19 16 14 12 10 7 6 10 10 9 9 8 9 9 6 6 4 5 7 11 11 11 10 11 12 11 12 14 20 16 12 12 12 12 11 12 12 12 11 12 13 11 10 11 11 12 12 12 13 13 12
5 10 11 13 15 15 11 16 13 10 11 7 10 8 3 6 4 6 7 12 15 14 16 15 17 16 15 18 20 20 19 20 20 20 21 21 18 19 20 20 20 20 20 20 20 20 21 20 18 15 10 8 9 8 7 7 8 6 6 5 6 9 10 10 9 9 13 12 12 12 10 11 9 5 7 6 7 11 11 12 11 11 11 12 12 14 14 14 12 11 10 10 12 9 12 12 12
13 10 15 12 7 21 15 6 4 9 13 7 5 7 6 4 6 6 9 13 13 15 16 15 14 14 15 18 18 19 19 18 18 18 19 20 20 20 18 17 19 19 20 19 18 18 18 20 21 21 17 10 9 7 6 3 4 4 7 7 8 8 9 9 13 13 12 11 9 9 9 10 15 14 13 13 10 9 9 11 12 12 12 11 11 11 11 10 12 11 11 11 11 10 13 13 11
20 14 13 6 6 11 19 15 6 9 14 10 3 7 12 6 12 4 8 13 13 14 14 14 15 17 19 19 19 19 19 16 16 17 17 19 18 20 19 18 16 16 16 17 19 17 17 17 19 20 20 19 14 11 7 4 4 6 8 10 11 11 9 11 11 8 5 8 10 11 9 8 12 12 13 14 15 16 13 11 12 12 11 11 14 12 12 12 11 10 11 12 11 11 12 9 10
21 16 12 18 8 8 7 18 9 10 10 10 5 5 5 3 5 5 9 11 12 14 14 15 16 17 17 17 19 19 20 19 21 19 19 20 20 21 20 19 20 17 17 17 19 19 19 19 20 18 20 19 20 19 10 4 5 8 8 7 5 6 3 4 4 3 4 10 9 11 10 9 7 8 12 13 12 11 13 13 11 12 12 13 12 14 14 14 12 11 10 11 10 10 11 11 9
8 12 10 3 14 9 12 16 12 19 8 8 5 7 12 10 5 5 4 11 14 15 16 16 13 14 14 14 15 17 19 20 21 21 21 21 20 20 20 21 21 20 20 19 18 19 21 21 21 22 22 22 24 23 22 18 12 10 12 10 6 3 2 3 7 11 15 10 11 11 14 14 15 12 11 12 11 12 12 12 11 11 11 12 13 13 14 12 12 11 11 10 9 10 10 11 9
6 12 6 5 9 6 13 7 7 12 21 14 15 13 11 5 4 6 11 12 14 15 16 13 11 11 12 13 15 16 16 17 19 19 19 20 20 21 21 20 20 18 15 18 19 20 19 20 22 22 23 21 23 22 22 21 20 17 14 12 9 7 5 8 12 16 14 8 14 13 12 11 9 11 11 11 10 10 10 11 11 14 13 11 13 12 12 13 12 12 10 11 11 11 11 9 9
13 18 14 16 16 11 9 8 5 8 17 19 17 14 7 7 10 10 15 12 13 12 16 14 10 12 12 14 14 15 15 16 16 17 17 19 19 20 20 21 19 20 22 23 23 21 21 22 23 23 22 20 21 21 20 21 19 18 16 13 11 7 8 13 16 17 9 13 14 12 10 10 12 11 13 13 13 12 12 11 10 9 11 9 8 11 11 12 13 11 11 10 11 12 11 10 9
Wind_Speed
1 2 1 0 1 1 1 5 1 2 1 4 3 1 3 2 3 5 5 2 1 2 2 3 0 3 0 1 7 7 4 2 1 7 3 1 1 6 8 11 11 10 11 10 9 9 10 14 17 18 18 19 18 17 16 17 18 17 17 18 18 17 17 18 18 19 19 19 19 19 20 21 20 20 20 19 20 19 18 18 17 18 18 18 20 19 18 18 19 19 18 19 19 17 19 20 20
1 2 2 0 1 1 1 1 3 2 4 2 6 2 5 1 1 5 5 1 2 0 1 3 7 10 11 12 8 2 5 7 2 1 3 3 7 6 8 11 10 12 10 9 9 9 9 12 17 18 19 19 19 18 18 17 18 18 18 19 19 18 18 18 18 18 19 19 19 20 21 20 20 19 19 18 18 18 16 18 18 19 19 18 17 18 18 18 18 18 18 17 18 18 18 18 18
1 1 1 2 2 3 1 4 2 1 1 3 8 7 2 2 5 6 6 1 4 2 3 4 3 4 3 3 8 2 1 2 5 4 4 2 7 3 8 8 9 11 11 8 9 9 8 11 17 18 21 20 20 19 18 18 18 17 17 17 18 18 18 19 18 18 18 19 19 19 20 20 20 19 20 19 19 18 16 15 18 19 19 18 17 17 17 16 16 17 17 16 16 17 17 16 16
2 2 3 3 0 3 1 3 5 7 2 6 4 6 4 3 5 5 4 4 6 4 1 1 2 2 4 8 3 3 4 2 3 3 5 1 1 8 9 10 10 10 9 8 9 9 9 13 18 19 21 20 20 19 18 18 19 18 18 17 17 18 17 17 17 17 18 19 19 19 19 19 19 19 19 19 19 18 17 17 16 18 17 16 17 16 16 16 16 15 15 16 17 16 15 15 14
0 1 1 3 4 1 2 0 3 4 4 4 2 3 4 4 7 3 3 3 8 6 2 0 3 2 3 5 0 2 0 3 2 3 3 3 6 9 10 11 11 11 10 10 10 9 10 18 17 18 18 20 19 19 19 18 18 18 18 17 18 17 16 17 17 17 17 18 18 18 19 19 18 18 18 18 18 18 17 17 17 18 17 16 15 15 14 14 14 14 15 15 15 15 15 14 13
2 1 3 1 0 2 4 1 0 3 7 4 1 4 4 4 3 3 7 7 4 2 2 3 2 2 4 3 2 2 1 0 3 2 5 8 10 11 13 12 11 11 10 9 9 8 9 16 16 16 17 19 19 19 19 19 18 18 17 17 17 17 16 17 17 17 17 17 18 18 18 18 17 18 17 18 17 17 17 18 18 18 17 17 17 16 15 14 13 13 14 14 15 15 14 13 13
0 3 4 3 2 4 4 2 3 5 9 8 4 5 4 3 4 5 7 10 1 6 1 3 6 6 6 1 3 3 5 5 5 5 6 9 10 10 10 8 8 9 9 8 8 8 11 14 15 16 16 19 19 19 19 19 18 17 17 16 16 16 16 16 16 16 16 17 17 17 17 17 16 18 18 18 17 17 16 16 18 18 17 16 16 16 15 14 13 13 13 14 15 14 14 13 13
0 2 1 2 1 1 0 1 3 4 5 7 3 5 8 8 2 4 4 2 5 3 3 3 3 7 2 2 2 6 6 1 5 7 8 9 9 9 6 6 7 9 9 7 7 8 14 15 16 17 17 17 19 19 19 18 18 17 17 16 16 15 15 16 16 15 15 16 17 17 16 17 15 17 17 16 16 15 16 17 17 17 17 16 16 15 15 14 14 13 13 14 14 14 14 14 14
3 4 0 4 1 2 1 2 4 3 7 4 9 8 12 10 5 2 4 2 3 0 2 2 1 6 2 6 2 3 2 3 6 8 9 9 10 9 6 8 10 9 9 9 9 9 10 15 16 17 17 17 18 18 18 18 17 16 16 16 15 13 13 14 16 15 13 14 15 16 16 15 15 15 16 15 15 15 15 15 14 15 15 15 15 15 15 14 14 14 14 14 14 14 14 14 14
2 2 1 2 4 3 2 5 0 4 4 4 5 10 7 4 2 4 2 6 3 4 2 6 5 10 9 9 3 2 1 6 7 7 6 7 8 8 8 8 9 12 10 9 9 9 9 17 16 16 15 16 17 17 17 15 15 15 15 15 14 13 13 13 13 13 11 13 14 15 14 14 14 14 13 14 15 15 14 13 13 13 14 15 15 15 15 14 14 14 14 14 14 13 14 14 14
0 4 2 2 1 1 3 5 4 7 4 5 8 11 13 6 3 1 4 1 1 3 5 5 9 10 5 3 1 2 4 6 9 12 8 6 6 6 6 6 8 9 11 11 9 8 9 12 19 16 16 16 16 16 15 14 14 13 13 13 12 12 12 12 13 14 12 11 14 14 13 13 13 13 14 15 15 14 13 12 11 12 14 15 15 15 14 13 13 14 14 14 12 11 12 13 15
1 1 1 2 2 5 3 2 4 7 8 4 5 6 1 3 4 2 2 3 1 4 3 1 6 7 7 3 1 4 6 6 3 2 6 5 6 5 6 6 7 8 9 9 8 6 6 9 9 15 16 15 15 15 15 15 14 13 13 12 12 12 12 12 12 12 11 11 12 12 13 12 13 13 14 14 14 13 12 11 11 12 14 14 14 14 13 13 13 13 13 13 12 11 12 14 15
2 1 5 3 2 1 1 1 5 3 5 5 4 2 2 4 2 3 3 6 3 4 2 2 14 1 4 1 1 1 6 5 1 2 5 5 5 5 5 6 7 9 9 8 8 6 5 6 7 8 12 18 15 15 15 15 14 14 14 13 12 12 13 13 12 12 12 11 12 12 12 11 11 14 14 13 13 12 11 10 10 11 14 14 14 13 12 12 13 12 12 12 12 11 12 14 15
2 5 5 3 1 2 3 3 0 2 4 4 2 4 3 0 1 4 7 8 5 2 2 7 4 10 6 4 2 5 7 3 3 3 4 4 4 5 7 7 8 9 9 10 10 8 7 5 6 7 10 10 10 13 16 16 15 15 14 13 12 12 12 12 11 11 11 12 13 12 11 11 12 13 13 13 12 11 10 10 10 11 13 14 13 13 12 13 12 12 12 13 13 13 14 15 15
1 2 2 2 1 0 3 2 1 3 5 1 3 4 6 2 2 4 7 11 5 2 4 2 3 2 5 9 5 10 9 7 5 3 4 4 5 5 6 6 7 8 8 9 9 10 10 8 7 7 8 9 10 8 8 12 16 15 13 13 13 13 11 11 11 11 11 11 13 12 12 13 13 13 13 12 11 10 9 9 9 10 12 14 13 12 13 13 12 12 13 13 14 14 15 15 15
3 4 2 1 2 2 3 1 1 0 7 1 3 5 0 5 1 2 2 3 4 2 1 2 3 1 4 10 6 14 11 7 4 4 6 8 7 5 5 6 7 7 7 9 8 8 9 8 7 6 5 6 6 5 6 7 13 15 14 13 13 13 13 11 11 11 13 13 14 14 14 12 11 11 15 10 10 9 8 6 8 9 11 13 12 12 12 12 12 13 13 13 14 15 16 16 16
2 3 0 2 3 2 3 3 3 1 6 4 5 7 4 1 1 4 5 6 10 4 5 3 4 3 12 6 1 10 9 6 6 7 8 8 7 7 6 6 7 6 4 6 6 6 6 6 6 5 5 5 5 5 5 6 10 14 12 14 15 15 12 13 12 13 12 12 11 12 11 7 6 7 8 6 9 5 5 7 8 9 10 11 11 11 11 12 12 12 12 13 13 14 15 16 15
1 2 5 1 3 2 4 4 6 0 1 5 10 5 4 1 2 3 5 10 9 8 8 3 8 8 4 3 5 10 8 8 7 10 10 9 8 8 8 7 7 8 7 5 3 4 5 5 6 6 6 7 6 4 4 5 7 10 7 8 8 11 11 11 10 7 8 5 10 8 6 6 5 5 6 8 4 5 4 6 7 8 10 10 10 10 10 11 11 12 14 12 12 11 12 8 9
2 2 3 7 4 6 4 3 5 0 4 5 6 3 1 2 2 1 5 0 1 9 7 6 6 7 7 6 7 9 8 8 9 9 12 12 10 10 9 8 8 8 7 4 4 4 4 5 6 6 7 8 8 7 6 6 6 5 6 6 6 9 8 7 5 6 3 6 6 5 5 5 5 5 5 7 5 7 5 6 7 7 8 9 9 9 9 10 11 13 13 12 12 11 7 6 6
3 4 3 6 5 4 4 4 4 3 3 9 8 3 3 5 1 1 3 3 4 8 5 4 3 5 5 5 7 7 8 8 8 9 11 11 10 9 9 10 9 8 7 4 5 4 5 5 7 7 8 7 6 5 4 5 6 5 5 5 5 5 5 5 5 5 5 5 6 5 5 5 5 4 9 13 9 5 4 6 6 7 7 8 8 5 8 10 14 13 11 11 8 5 6 6 6
2 1 4 4 3 1 4 5 8 8 3 4 4 3 3 2 2 2 6 6 1 3 6 9 12 11 10 8 8 8 9 9 8 8 9 11 9 6 5 3 5 4 4 5 4 5 6 6 7 7 7 6 6 6 6 5 6 5 5 5 5 5 4 5 5 5 5 6 6 5 5 5 5 5 5 5 5 5 4 3 3 4 4 4 5 4 4 6 6 6 5 6 5 7 7 6 6
3 5 3 3 1 2 7 5 6 4 4 3 2 4 4 0 2 6 7 4 3 7 10 8 13 12 13 13 11 8 9 10 9 9 11 12 10 8 5 5 6 4 5 5 5 6 6 6 7 6 7 6 6 6 6 7 8 6 6 6 6 5 5 5 4 4 5 6 5 5 5 5 5 5 5 5 5 5 4 3 3 3 4 3 3 3 3 5 5 5 5 6 5 5 6 6 5
4 2 3 5 5 6 1 1 3 2 2 3 5 0 4 2 1 2 4 4 2 3 7 11 15 15 12 9 11 11 10 12 12 13 12 11 9 7 6 5 5 6 5 4 5 5 7 7 7 7 6 5 6 6 6 5 6 6 5 6 6 6 5 5 5 4 4 4 5 5 6 5 5 5 5 5 5 4 4 4 3 3 4 3 2 3 3 4 5 5 5 5 5 6 6 5 6
2 3 0 4 4 8 6 7 7 5 3 7 1 6 4 4 1 2 2 3 1 2 8 12 11 9 9 11 10 13 14 14 15 12 12 13 13 11 6 6 5 4 6 6 6 5 7 8 7 7 6 6 6 6 7 6 6 6 7 8 6 7 7 5 5 5 5 5 5 5 5 5 5 5 6 5 5 4 4 4 3 3 3 3 2 2 2 4 6 5 5 5 6 5 6 5 5
3 4 3 4 2 6 6 6 7 5 6 7 5 6 12 1 1 1 2 2 2 6 9 12 12 11 8 7 9 7 8 7 8 7 4 3 2 4 5 5 5 6 7 7 7 7 7 7 7 7 6 6 6 7 7 5 6 6 6 6 6 8 6 6 5 5 5 4 5 5 5 6 5 5 6 5 4 4 4 4 4 3 3 2 2 2 1 3 6 5 4 5 5 6 5 5 5
5 6 2 2 5 5 5 6 7 5 4 2 2 7 9 3 5 1 2 2 4 9 9 12 13 11 10 10 9 9 9 11 7 6 7 3 3 6 5 6 6 7 7 7 8 6 7 9 8 8 8 7 6 7 6 6 7 7 8 7 6 7 6 6 6 5 5 5 5 5 5 5 6 6 6 5 6 5 4 4 4 4 3 2 2 3 1 2 5 5 4 4 5 6 5 5 5
4 5 5 5 8 4 4 2 5 2 4 1 4 5 4 4 1 4 1 1 8 8 11 11 15 13 12 9 9 8 9 10 9 2 2 3 3 7 6 6 6 6 7 8 7 8 6 8 8 9 9 8 7 8 6 7 7 7 8 6 6 6 6 6 5 5 5 5 5 5 5 5 6 6 6 6 5 5 4 4 4 3 3 3 2 2 2 3 4 4 4 5 5 5 5 4 5
3 3 0 4 5 4 6 4 9 1 4 6 6 6 1 2 2 2 3 4 7 14 10 11 8 9 11 10 9 7 7 6 2 4 7 8 8 6 6 6 7 6 8 8 7 7 8 9 9 10 9 8 8 8 7 7 7 7 8 7 6 6 7 6 4 5 5 5 5 5 5 5 6 6 6 6 6 5 4 4 4 4 4 3 2 2 2 3 5 4 4 4 5 6 5 4 4
1 3 3 5 6 4 2 5 4 5 4 4 6 0 2 0 2 3 3 4 6 12 12 10 10 9 8 8 7 6 8 4 3 6 10 7 2 4 6 5 8 9 6 7 7 9 10 10 10 9 9 9 9 9 8 8 7 7 7 7 5 7 6 6 6 6 5 5 5 5 5 6 6 6 6 7 7 5 5 5 4 4 4 4 3 3 2 4 5 5 4 4 6 6 6 5 5
1 2 1 3 5 3 2 1 2 4 2 6 5 2 6 6 2 4 2 4 5 9 9 9 7 8 7 7 8 6 3 4 7 10 7 3 2 4 6 5 5 5 4 5 7 9 7 6 6 7 8 9 9 8 8 7 7 6 6 6 5 7 6 6 6 6 5 5 5 5 5 6 6 6 6 6 5 5 5 5 5 4 4 4 4 4 3 4 5 5 4 5 5 5 6 5 6
3 1 3 1 0 3 3 0 0 5 2 5 1 2 9 1 3 7 5 8 12 10 8 10 9 8 8 8 7 7 6 7 9 7 6 3 3 4 5 5 6 6 6 6 8 8 8 8 7 6 8 8 9 9 9 8 7 7 7 6 6 7 6 6 6 6 5 5 5 5 5 5 5 6 5 6 5 5 5 5 5 5 4 4 4 4 4 4 5 5 5 6 6 6 5 5 5
2 2 2 3 3 4 7 3 2 5 0 2 3 1 7 6 7 6 3 5 8 10 11 11 10 10 9 9 9 8 7 6 7 7 7 6 5 5 6 6 6 6 8 8 7 8 9 8 8 6 7 8 9 9 8 8 9 8 6 7 6 7 6 6 6 6 5 5 5 5 4 4 5 5 5 5 5 5 5 5 5 4 5 5 4 4 4 5 5 5 4 7 7 6 7 6 5
5 3 2 1 1 4 3 1 1 4 0 2 1 3 2 2 5 5 1 5 5 6 9 10 11 11 10 9 8 5 4 5 7 10 10 8 7 5 4 4 5 6 7 10 10 10 10 9 9 7 9 10 8 7 7 6 7 7 7 8 7 7 6 5 5 5 5 5 4 4 5 5 5 5 5 5 5 5 4 5 4 5 5 5 5 5 5 5 6 5 4 3 6 7 8 8 6
1 2 2 2 1 0 1 7 1 3 2 1 3 1 2 2 3 7 4 1 4 4 5 7 9 9 9 7 5 5 6 7 12 12 14 9 5 3 2 3 4 4 5 8 9 11 11 9 8 8 8 8 5 6 6 6 5 5 6 6 6 6 7 5 5 5 6 5 5 6 6 6 5 5 5 5 5 4 4 5 4 4 5 5 5 5 5 5 5 7 6 4 5 7 8 8 7
3 1 2 0 0 1 1 0 1 2 3 0 1 0 6 4 8 7 6 6 4 6 1 2 5 4 5 5 6 6 7 9 15 12 7 5 4 2 2 3 3 4 3 4 6 7 6 7 6 8 8 6 5 5 4 4 4 3 4 6 7 6 6 5 6 6 6 6 6 6 6 5 3 4 5 5 6 5 5 4 4 4 4 5 5 5 5 6 6 5 7 5 5 5 6 7 7
5 6 4 2 2 1 1 4 3 1 0 1 3 4 2 7 8 11 10 6 2 3 4 1 2 3 4 5 4 5 6 10 10 3 2 3 3 3 3 3 3 3 3 3 4 5 6 6 5 5 6 5 5 5 5 5 5 6 6 5 7 7 7 7 6 6 5 6 6 6 5 6 5 2 4 6 6 6 6 5 5 4 5 5 6 6 6 6 8 7 7 8 9 8 6 6 7
5 5 6 2 0 4 4 4 7 1 0 2 4 5 7 7 7 7 6 6 12 11 6 2 0 1 3 3 3 4 5 9 4 3 2 3 4 3 2 1 1 2 3 4 5 6 6 5 5 7 5 6 6 6 6 6 6 6 6 7 7 7 8 8 7 6 6 6 7 7 7 6 8 9 8 6 7 6 6 5 5 5 5 6 6 7 7 7 7 7 6 5 10 10 7 6 7
6 5 2 1 1 2 3 1 2 2 2 2 7 11 8 6 8 8 7 14 15 12 9 8 3 1 0 0 3 4 5 5 5 4 4 3 3 3 3 3 1 1 1 3 4 4 4 4 5 5 2 5 5 5 5 6 6 7 7 7 6 5 7 8 7 6 7 6 6 8 8 7 8 8 8 6 6 7 6 6 6 6 4 5 5 5 6 7 7 8 7 5 2 7 7 8 8
3 4 3 1 2 5 8 3 2 2 3 1 7 12 5 6 5 10 13 10 7 6 8 7 8 8 5 2 2 3 4 5 4 5 5 5 4 3 2 3 4 4 2 2 1 1 1 1 5 7 8 3 1 1 3 4 3 3 3 3 6 2 1 4 6 7 7 8 9 8 7 7 7 7 8 8 7 7 7 7 5 5 5 2 5 4 4 6 7 9 9 8 6 3 5 6 8
5 4 3 4 3 1 1 4 2 3 2 3 7 13 4 7 4 8 10 9 4 6 8 10 11 12 9 8 6 2 3 2 2 3 5 5 4 4 2 3 4 5 7 8 10 9 9 11 9 6 7 6 3 1 1 1 2 1 1 0 1 2 2 1 4 4 5 7 9 8 6 8 9 8 8 8 7 7 7 7 5 7 8 6 7 7 5 6 7 7 8 7 9 8 6 6 5
1 4 3 2 1 2 4 2 3 1 3 5 10 7 5 9 9 10 10 6 9 12 13 14 13 12 9 10 11 9 6 3 4 5 4 4 5 7 9 8 9 8 10 9 7 6 1 6 8 9 8 5 4 2 2 3 4 3 2 2 3 3 3 4 4 1 7 8 7 7 8 9 9 8 8 8 7 7 6 5 8 8 7 6 6 7 8 9 7 8 9 9 9 9 8 6 6
1 4 7 6 3 4 3 3 5 4 1 1 4 4 2 4 5 7 7 7 13 13 16 16 14 14 13 14 14 13 12 9 8 9 11 12 11 11 11 10 9 8 8 7 8 7 5 5 5 5 1 2 3 1 1 1 4 5 4 4 4 3 4 5 8 10 10 10 11 8 7 7 6 6 6 5 6 6 6 6 7 7 7 6 6 6 7 7 8 7 8 9 8 8 10 8 8
4 6 8 5 5 3 1 3 1 1 2 2 1 5 2 2 6 7 7 8 12 12 15 13 13 12 12 12 11 12 13 11 10 10 11 12 10 9 8 7 6 10 8 7 10 12 9 5 4 1 1 3 5 6 5 3 3 3 5 7 5 5 5 5 2 4 7 4 3 6 7 6 6 7 6 5 5 5 6 7 8 8 8 6 3 4 6 9 9 10 7 7 8 7 6 10 10
3 2 11 7 4 4 4 2 5 3 2 1 5 4 7 1 4 3 6 6 12 14 13 14 12 13 13 13 13 13 13 11 10 10 10 10 10 8 6 3 2 5 6 7 8 7 12 13 7 6 7 6 7 8 8 7 7 5 3 1 4 6 7 7 4 4 3 4 4 6 7 7 7 7 7 6 4 4 6 7 7 7 7 7 8 7 7 7 7 5 7 7 6 8 9 9 9
4 4 10 9 10 7 5 4 2 0 1 5 4 3 7 0 2 3 4 6 11 12 11 12 12 12 12 12 12 12 12 12 13 12 11 11 10 9 7 6 7 5 3 6 6 4 2 2 3 5 7 6 6 7 7 7 6 4 4 3 5 5 5 5 1 3 4 6 8 7 6 6 5 6 7 7 9 8 6 6 6 5 5 6 6 5 4 6 9 9 8 6 7 7 7 6 8
5 6 4 5 6 5 4 3 4 1 2 3 1 2 5 1 3 3 0 5 8 7 8 9 9 10 11 11 13 13 12 11 10 12 11 10 9 9 7 6 6 5 6 7 7 7 8 7 8 6 7 5 1 2 4 5 3 4 4 4 9 5 4 4 1 3 5 4 7 5 3 4 6 8 8 7 6 7 7 8 8 8 6 6 4 5 6 9 9 9 10 9 9 9 6 7 8
6 9 7 5 6 4 3 5 2 4 1 5 0 2 4 1 2 2 2 3 4 4 4 7 9 11 12 11 11 10 10 10 10 11 12 12 12 12 9 8 7 8 6 5 7 8 8 7 7 7 5 3 2 0 2 1 3 3 3 3 7 9 8 5 5 5 6 6 5 6 5 7 7 7 7 6 8 8 6 6 7 8 8 7 6 5 9 9 8 8 8 9 9 9 7 7 6
8 3 5 7 4 4 4 3 5 4 3 4 2 1 2 4 1 1 6 7 5 4 6 8 10 11 11 11 10 11 11 10 10 10 11 13 14 15 15 15 12 9 10 9 6 5 6 6 6 7 8 4 1 2 5 4 6 6 5 6 8 8 6 6 6 6 6 7 6 7 5 4 4 4 7 7 8 7 7 7 7 7 7 7 7 6 8 7 7 7 7 8 7 8 7 7 6
5 6 8 9 2 2 0 1 2 2 6 1 2 3 4 5 2 4 7 8 7 7 7 8 10 10 11 11 11 10 10 12 12 12 12 12 11 11 12 12 14 14 12 11 9 6 4 2 3 5 5 6 2 4 5 5 4 4 6 5 4 3 3 3 3 4 6 7 7 8 8 8 6 7 8 9 9 9 8 7 6 7 7 7 7 6 6 7 6 7 7 8 8 9 8 8 7
5 7 7 7 3 3 4 1 0 3 3 1 3 2 3 2 3 5 8 7 8 9 9 10 10 11 11 11 11 11 12 12 11 11 11 11 12 12 12 11 11 12 13 13 12 10 8 6 5 4 4 3 3 4 3 3 1 2 3 3 2 2 3 2 3 4 5 5 4 6 7 8 7 9 9 8 8 7 7 7 6 6 6 7 8 7 7 7 7 7 7 8 8 8 7 9 8
8 3 9 7 7 5 3 3 5 6 4 2 3 4 3 5 1 5 6 6 9 8 9 10 10 10 10 10 11 12 12 13 12 11 11 12 11 12 12 12 12 12 14 13 12 12 11 10 9 8 7 5 4 4 5 6 5 3 2 1 1 1 2 2 3 4 5 5 4 5 5 5 6 4 5 2 1 5 6 5 6 6 6 7 7 7 7 7 6 7 6 7 7 7 8 8 7
0 4 5 6 6 7 4 6 4 3 4 3 5 1 1 1 2 2 5 7 9 8 10 10 10 9 8 9 11 11 11 11 11 12 13 13 11 12 11 11 11 12 13 11 13 12 12 12 12 10 7 6 5 5 4 3 3 2 1 1 4 6 6 6 5 5 5 5 5 6 5 5 4 2 1 0 1 3 5 6 6 7 7 7 7 8 8 8 7 7 6 6 7 5 7 8 7
4 5 5 5 2 11 6 2 2 6 7 1 1 2 1 2 2 3 6 8 8 9 10 9 8 8 9 10 10 11 10 10 11 11 11 13 12 12 11 11 11 11 11 12 11 11 12 12 13 14 12 7 6 5 4 2 3 3 4 4 5 5 5 6 7 7 6 4 3 2 3 2 7 6 7 8 7 3 3 5 6 7 7 7 7 7 7 6 7 7 6 7 7 6 8 9 7
7 3 6 2 3 5 7 5 1 3 5 1 1 2 5 2 2 2 5 8 8 9 8 8 9 9 11 10 10 11 11 10 10 10 10 10 10 12 11 10 10 10 10 11 12 11 10 10 11 13 13 13 10 8 5 3 3 4 4 3 3 4 4 4 3 2 1 3 5 4 3 2 4 6 6 7 7 9 8 7 6 5 6 7 8 8 8 8 7 6 7 7 6 6 7 5 6
11 8 6 6 1 3 3 6 1 2 1 1 1 2 1 1 1 1 6 7 8 8 7 7 9 10 10 10 11 11 10 9 10 10 10 10 11 11 11 12 12 10 10 10 11 11 11 12 13 11 13 12 13 12 8 3 4 5 4 4 3 3 2 3 2 0 2 6 5 5 4 4 3 3 4 4 6 6 7 8 7 5 4 8 8 8 8 7 7 7 6 6 7 6 6 7 5
5 7 4 1 5 3 4 4 5 8 3 3 0 3 3 4 1 3 2 7 9 8 7 8 7 8 7 8 8 10 10 11 11 11 10 11 11 12 11 11 12 12 11 11 11 11 14 13 13 14 14 14 15 14 13 11 8 6 7 6 4 2 1 2 5 6 5 4 5 7 8 8 9 7 7 7 7 7 7 7 6 4 6 7 8 8 8 7 7 6 6 6 6 6 6 7 6
3 5 1 1 3 2 5 2 2 4 7 5 5 4 3 1 1 3 6 7 8 8 9 7 6 7 7 8 9 9 10 10 10 10 10 11 11 12 12 11 10 10 9 10 11 12 11 12 13 14 14 13 14 13 12 11 10 10 9 8 6 5 4 5 8 8 3 5 8 5 5 7 6 7 7 7 7 7 7 6 6 6 3 6 7 7 7 7 7 7 6 7 7 7 7 5 6
6 8 6 8 8 5 5 2 2 4 7 6 6 4 2 3 4 5 9 6 8 7 10 8 6 6 7 8 9 9 9 10 10 10 10 10 11 12 12 11 11 11 13 15 13 12 13 13 13 13 13 11 12 12 12 12 11 11 10 8 7 4 5 8 10 6 5 8 7 5 5 5 7 7 7 8 8 7 7 7 6 6 6 5 4 6 7 7 7 7 7 6 7 8 7 7 6
Wind_Direction
300 2 339 63 46 113 57 2 179 308 66 251 331 185 262 225 268 336 276 15 3 294 254 330 9 348 101 161 129 131 50 121 203 133 213 246 77 107 107 114 121 124 128 131 135 129 131 129 129 129 127 123 124 125 125 124 121 118 118 120 119 120 121 121 122 123 125 124 124 124 123 122 122 122 123 122 121 120 117 116 117 114 110 112 108 103 99 100 100 97 98 97 98 95 88 83 82
37 20 49 3 280 46 239 120 99 350 36 7 244 126 250 258 82 219 241 141 212 119 294 93 76 68 62 96 121 132 38 28 9 70 72 76 80 80 115 122 132 134 135 135 134 131 133 135 133 133 131 129 130 130 129 125 121 120 120 122 123 121 122 124 127 129 129 128 126 126 126 125 125 123 123 122 120 121 121 118 117 118 117 113 109 105 103 103 99 98 98 97 92 86 81 79 81
13 50 14 30 19 78 84 38 272 42 126 257 273 209 310 305 215 249 236 179 259 259 325 333 41 45 35 26 32 43 238 42 70 50 72 128 100 111 118 126 134 135 138 138 136 136 138 138 138 137 135 134 133 131 128 125 123 122 124 126 124 126 127 129 130 131 131 129 128 127 127 126 126 126 125 123 120 118 112 114 118 118 117 116 112 105 104 99 100 101 98 94 89 83 77 73 72
54 31 156 72 224 27 63 29 84 131 135 215 305 261 216 199 264 237 241 248 252 252 301 285 58 282 112 72 127 82 57 2 57 110 122 125 212 138 140 137 137 139 140 142 143 142 141 143 143 140 138 136 134 129 127 126 128 130 130 127 126 130 131 131 132 132 132 131 129 129 127 126 126 124 123 124 124 123 121 117 114 114 111 110 111 111 106 105 105 96 95 94 90 80 76 71 73
65 309 93 95 110 357 104 163 148 103 223 192 196 270 234 231 250 284 269 236 246 215 180 183 77 338 98 97 74 89 233 106 92 57 126 136 149 150 146 149 149 148 150 148 146 143 145 146 143 140 137 136 133 130 132 130 131 133 132 128 131 133 133 133 133 132 134 133 131 130 129 129 128 126 125 123 121 121 121 120 119 117 112 109 109 106 105 104 101 103 101 97 90 81 75 72 72
46 38 350 95 345 178 59 69 59 203 229 152 230 255 225 238 251 279 307 311 316 157 182 63 171 203 37 29 33 61 334 267 170 102 165 163 159 161 159 158 153 154 150 144 143 142 143 145 138 137 139 139 137 138 135 132 134 134 134 134 136 134 133 135 134 135 135 136 133 131 131 130 129 127 124 121 117 115 115 116 112 110 112 115 114 115 116 113 108 105 103 94 88 81 77 77 78
257 44 353 29 21 57 175 142 201 209 264 163 227 272 268 240 236 334 344 350 342 85 288 114 123 100 81 11 35 24 314 225 151 189 198 160 156 163 158 150 143 136 133 133 135 136 142 139 136 140 143 144 142 141 137 135 135 137 136 137 136 136 135 135 134 135 137 136 134 132 133 133 131 126 122 120 120 120 120 117 115 114 115 115 116 119 118 116 115 110 100 95 89 86 85 86 88
85 120 286 105 228 49 127 186 253 157 274 178 240 270 287 282 315 345 330 29 308 40 357 120 12 88 64 352 113 329 337 334 147 141 150 156 154 150 142 132 128 128 132 130 132 138 143 142 144 147 148 146 143 139 136 136 136 139 139 139 138 138 137 137 136 136 138 138 134 132 135 135 132 126 122 125 125 124 123 119 117 117 118 118 118 121 122 120 117 111 103 97 93 90 92 94 97
345 87 297 82 136 46 54 230 254 229 280 275 267 240 267 273 284 276 296 231 313 143 28 314 212 76 140 74 59 283 350 107 120 140 152 155 149 144 142 143 144 139 137 141 143 150 144 151 149 148 147 144 141 137 137 139 140 142 142 141 142 140 140 139 138 138 139 138 134 134 136 135 131 128 129 130 131 128 121 118 118 116 115 117 119 122 123 122 118 111 104 99 96 94 98 103 103
39 86 263 147 120 229 16 297 127 241 230 241 267 282 271 258 240 164 266 314 244 91 29 69 66 117 127 100 126 301 210 148 135 143 155 148 143 144 146 145 148 145 141 146 153 150 150 150 149 149 146 143 143 141 140 141 141 143 142 143 143 145 145 142 138 138 135 136 136 134 135 134 132 133 135 137 130 119 118 118 118 116 115 116 117 118 119 118 114 107 103 100 98 101 108 112 110
178 12 136 90 40 185 218 270 265 300 267 295 288 255 251 265 219 247 201 208 66 120 169 98 69 113 108 69 26 7 146 164 166 164 159 138 137 140 135 132 144 149 146 151 152 151 155 149 153 150 147 143 143 141 140 140 141 140 139 139 145 147 145 139 138 140 136 135 137 132 131 135 139 141 141 131 120 120 122 121 120 117 116 115 116 117 116 116 110 106 105 104 103 106 116 120 116
31 86 33 104 188 160 231 199 267 277 288 307 281 293 297 165 136 162 226 171 131 137 191 117 151 134 80 117 192 177 173 197 217 106 121 132 142 139 134 131 141 145 144 145 140 149 147 148 148 151 145 142 141 140 139 142 145 141 139 143 148 147 141 138 139 137 136 134 133 130 133 142 145 142 132 122 123 123 123 124 122 120 116 115 115 116 116 113 109 108 106 105 105 111 125 127 121
118 106 85 96 224 140 207 284 261 278 325 288 229 290 63 116 167 197 129 65 36 114 353 243 150 163 112 184 185 217 196 212 129 124 132 144 146 137 127 134 135 137 140 140 139 141 139 139 142 144 148 145 142 141 142 149 149 143 145 150 150 144 141 142 142 140 138 135 132 135 139 142 140 137 129 127 124 120 123 125 124 121 118 116 115 117 117 113 112 109 105 103 104 108 120 126 121
116 179 130 215 71 164 150 240 246 331 294 252 269 283 306 188 250 157 109 61 18 92 265 111 100 108 84 103 217 210 212 183 146 148 136 133 135 134 141 138 138 142 146 146 147 145 146 143 146 149 151 147 147 146 152 155 150 148 149 148 145 142 142 144 143 142 139 138 138 139 142 139 139 132 128 127 119 119 123 126 125 123 119 116 118 120 118 116 114 109 104 102 101 105 116 124 119
193 152 84 113 110 49 248 160 222 150 267 254 264 358 339 2 52 81 108 103 55 70 94 95 119 60 205 171 223 210 189 189 167 140 127 114 116 132 134 135 138 144 147 147 151 156 155 153 156 159 157 154 153 152 157 157 147 147 143 142 142 143 143 143 143 142 142 142 142 142 140 139 139 132 128 121 119 124 126 125 126 123 121 121 121 120 120 118 115 110 105 101 102 104 109 112 112
153 82 85 130 240 176 271 193 215 127 265 251 285 2 62 24 9 69 310 174 153 58 339 184 356 181 177 183 216 191 164 159 143 123 123 126 129 132 140 147 149 153 155 157 163 165 159 157 155 153 142 141 137 139 140 144 146 141 143 140 142 144 145 143 144 146 147 147 148 148 141 137 139 134 128 122 123 126 126 123 123 121 122 122 124 125 122 119 116 111 105 102 104 109 110 111 112
78 79 40 41 256 153 257 178 139 219 259 279 301 30 34 21 355 72 49 40 96 8 50 18 315 313 178 211 208 137 129 122 122 129 134 144 149 154 155 158 159 158 158 162 159 157 146 139 127 118 113 122 124 120 109 129 149 141 142 146 148 149 148 150 148 152 151 152 154 152 136 129 130 129 122 125 124 123 129 127 121 121 122 125 125 125 122 119 117 112 104 103 108 116 118 116 115
77 136 113 207 208 162 210 196 192 186 267 308 335 4 20 15 47 154 61 44 77 69 55 22 35 32 20 354 77 103 119 137 145 144 156 158 159 159 165 170 167 171 162 152 133 122 124 125 126 122 124 125 115 101 113 131 148 148 146 151 149 152 152 151 154 154 153 148 151 144 136 132 119 120 126 130 119 133 133 132 121 117 120 122 125 123 121 118 115 106 102 100 101 107 116 115 116
136 111 112 214 203 238 161 206 228 276 274 283 293 357 99 262 144 211 86 313 31 56 41 46 54 37 54 67 83 113 139 147 150 159 164 169 171 170 169 170 172 165 160 132 122 110 116 121 120 123 128 128 130 136 145 139 135 132 141 139 146 149 152 140 139 144 126 132 130 143 132 120 122 128 127 137 132 138 140 132 124 117 114 121 124 123 120 115 106 99 100 102 103 105 102 110 106
223 119 191 241 214 251 221 228 258 200 269 302 314 305 58 271 167 332 108 123 67 115 127 66 110 143 153 136 128 142 159 160 162 164 174 180 178 176 170 178 164 164 163 127 128 102 104 109 113 120 124 126 129 130 122 118 128 125 125 124 124 122 128 128 125 131 140 134 135 133 130 129 125 136 151 143 139 126 136 133 129 119 113 114 114 110 119 117 102 97 93 94 94 101 112 111 107
263 133 181 229 226 232 263 198 238 258 249 272 270 311 4 257 237 96 142 90 338 246 205 161 181 170 170 164 160 165 173 169 170 178 186 189 187 185 184 123 126 134 121 101 101 114 103 107 113 113 114 115 122 129 132 126 125 129 126 128 127 127 119 114 122 123 138 135 132 140 142 132 132 129 127 127 116 106 94 76 57 56 56 59 74 70 55 85 91 96 79 80 98 115 118 118 116
106 209 180 203 166 220 253 235 232 233 195 218 283 349 292 124 43 121 139 128 229 204 208 211 170 168 162 170 177 178 183 179 180 182 194 195 190 183 144 110 96 100 113 107 118 113 109 108 112 114 119 127 132 139 139 142 140 141 140 140 133 126 130 126 126 131 137 140 145 144 124 128 131 124 126 125 113 108 109 100 89 77 75 72 67 80 59 83 98 99 97 97 99 106 116 118 120
232 316 237 231 232 250 269 268 217 51 334 301 326 284 339 357 109 199 137 167 232 206 170 175 173 176 172 155 162 179 187 189 189 193 189 192 190 187 166 145 138 136 126 121 108 113 114 109 119 123 128 132 134 138 136 138 142 140 139 143 132 131 139 137 142 141 139 139 142 144 142 141 134 128 130 122 121 121 127 134 134 108 104 98 69 86 67 70 92 99 98 102 107 108 106 110 115
172 252 297 291 218 239 265 282 305 303 315 280 210 306 327 267 38 177 107 263 285 283 162 156 154 152 156 165 187 189 190 190 197 197 194 194 190 181 155 144 123 117 118 131 117 124 121 123 128 134 143 145 145 146 141 144 141 144 145 150 145 150 151 157 154 154 146 144 151 156 148 141 140 139 133 133 135 131 144 140 138 122 110 102 77 81 74 66 79 92 102 105 107 108 115 115 115
185 243 243 265 232 243 265 272 290 288 274 265 326 324 279 332 337 323 86 289 73 113 128 138 143 158 164 181 188 202 207 213 213 201 202 227 123 112 116 113 123 132 135 136 138 134 140 137 135 142 152 153 152 149 150 146 144 147 150 154 158 163 156 165 158 145 150 151 156 157 152 145 147 146 141 146 141 152 148 147 149 157 136 123 100 59 66 68 81 92 102 107 109 110 113 117 118
203 220 212 272 272 279 273 297 275 265 282 260 351 267 273 257 261 44 289 95 117 116 121 139 146 156 178 192 197 198 206 212 209 199 203 172 125 143 150 143 144 151 154 143 144 148 154 143 147 157 162 162 159 151 152 157 155 159 161 165 167 163 162 161 153 155 157 157 161 168 163 151 155 151 149 150 159 161 157 151 147 160 164 157 127 168 96 93 98 100 100 105 111 116 111 123 121
184 200 220 235 258 313 312 230 287 282 230 136 201 263 275 340 81 274 338 212 122 115 134 149 159 170 185 192 201 212 208 215 208 158 164 193 175 168 166 151 159 159 146 150 156 162 167 151 160 163 166 165 161 161 162 166 163 167 162 167 167 164 165 160 157 161 160 167 166 164 164 157 149 151 156 160 164 157 159 159 173 155 166 182 185 176 97 100 100 106 122 131 129 115 108 112 116
155 166 209 264 293 279 254 307 271 45 285 185 183 245 16 337 77 209 206 197 146 130 148 156 171 173 185 195 202 211 221 232 212 181 209 205 201 171 166 166 167 158 166 167 170 165 166 170 171 170 168 165 165 164 168 168 171 163 159 167 173 158 158 165 165 157 167 169 167 169 167 160 152 156 161 165 164 158 165 177 174 174 196 162 170 168 100 87 100 106 105 107 107 104 104 90 88
213 155 273 291 353 329 256 215 256 157 248 162 164 95 298 335 167 271 247 165 153 138 154 165 172 185 193 198 203 211 220 226 228 222 222 221 105 146 172 186 170 176 189 167 167 166 175 174 176 178 164 164 167 169 174 174 168 162 161 172 164 161 160 163 174 171 170 172 174 176 169 160 160 161 172 171 164 161 164 177 188 203 196 162 149 145 109 95 99 95 76 90 91 99 98 99 94
71 52 146 321 3 337 306 282 293 141 248 129 153 263 265 258 247 280 209 160 131 134 155 169 180 189 196 199 207 215 225 226 231 229 227 211 140 148 180 183 177 171 151 155 164 177 179 183 180 171 167 165 170 173 174 173 172 166 168 167 163 161 169 167 174 171 168 173 176 174 170 170 167 171 169 167 156 156 165 181 194 207 201 159 143 150 141 121 108 105 116 105 112 109 114 121 123
191 247 62 200 21 270 295 16 46 146 146 152 75 223 281 225 267 244 209 174 154 157 169 173 181 191 199 203 207 210 216 223 233 244 245 229 180 167 180 169 169 151 142 158 183 181 183 187 179 175 172 169 170 176 174 175 173 173 168 171 172 169 170 172 169 161 166 172 168 172 178 179 175 175 174 160 158 162 172 187 195 206 181 152 152 172 156 136 123 130 137 116 100 101 106 119 124
22 98 288 325 151 278 298 336 163 159 4 118 99 336 247 295 244 261 220 192 172 162 178 181 184 191 198 203 208 208 215 227 249 255 249 239 215 195 185 184 167 162 163 171 173 179 192 194 186 172 172 179 183 177 172 173 176 177 172 175 170 172 171 172 166 163 164 166 167 165 181 186 176 179 172 159 159 176 183 190 203 194 175 152 157 167 153 148 133 135 153 136 116 114 119 115 121
358 122 254 151 129 255 358 208 325 256 267 20 151 200 330 4 343 331 309 195 209 182 182 185 190 194 196 205 208 200 210 241 250 244 244 233 226 203 192 178 178 182 168 168 175 183 192 194 189 173 179 189 186 169 167 173 167 171 175 175 175 174 177 173 160 150 151 163 164 173 188 185 179 178 171 165 166 180 194 200 210 196 170 158 163 168 169 152 142 138 137 116 124 136 132 127 126
298 11 159 209 146 15 179 308 347 16 91 246 9 217 211 175 29 353 5 342 248 227 209 202 196 195 202 206 203 194 211 223 234 232 234 229 241 219 169 177 184 189 185 178 181 184 190 188 187 183 186 192 170 170 173 166 162 163 169 173 167 169 175 173 149 145 156 173 190 194 184 180 178 172 163 166 179 188 197 205 212 193 167 156 160 165 165 145 143 145 129 96 118 132 137 136 133
189 228 78 107 5 250 246 69 241 23 7 174 324 13 272 344 340 347 328 331 254 238 228 238 216 209 213 217 208 207 210 219 237 230 235 237 251 248 190 187 182 184 187 185 184 190 189 189 184 191 190 180 152 154 150 132 139 151 154 164 169 172 166 159 149 154 172 189 198 200 191 174 168 163 165 171 183 190 200 222 207 191 164 157 154 158 143 141 137 145 139 115 84 100 130 133 131
175 158 157 144 105 234 223 248 273 177 82 158 196 207 2 24 7 349 1 4 61 316 316 287 205 221 219 222 226 220 224 238 252 327 303 255 243 237 216 195 182 167 154 174 189 194 198 192 186 189 187 162 135 145 146 151 163 169 172 165 174 175 171 159 159 169 170 188 193 205 192 162 139 162 203 187 183 187 197 208 209 182 171 154 155 160 157 151 150 138 138 130 117 114 120 127 128
126 96 108 115 97 281 284 268 252 267 30 245 195 64 47 24 14 5 350 8 28 15 6 8 38 309 275 278 261 263 249 250 297 289 253 233 242 242 237 198 160 130 157 175 191 196 198 195 187 198 181 157 163 166 167 169 170 176 193 188 188 181 171 160 164 172 178 190 195 197 193 188 179 185 200 183 188 187 194 196 194 194 179 162 162 174 167 158 154 145 125 122 129 125 134 140 133
136 113 102 79 148 278 239 270 350 312 112 333 73 78 48 29 18 15 15 38 24 8 1 15 355 89 114 250 283 275 274 297 324 354 2 357 340 337 352 0 5 276 211 196 204 198 194 186 198 213 158 173 181 174 171 183 193 196 190 193 191 185 167 167 169 172 174 172 189 200 195 190 192 194 189 192 194 187 187 194 197 193 167 163 155 154 152 145 137 126 137 107 110 134 142 156 149
80 148 140 85 280 245 285 275 320 330 90 347 89 78 31 349 353 27 34 37 30 14 31 25 22 12 1 323 220 258 278 284 8 26 27 21 18 15 11 10 354 331 332 290 271 204 5 19 22 4 352 350 26 120 184 197 208 229 213 197 195 132 69 159 167 179 185 183 192 203 194 187 193 202 196 190 191 192 192 193 190 92 74 84 112 125 153 161 156 151 155 148 135 119 133 155 165
116 98 98 209 232 50 304 290 48 351 78 118 106 92 50 348 343 33 28 31 16 32 44 41 34 29 10 349 326 283 231 291 37 53 45 56 55 62 55 26 14 8 4 8 1 19 27 34 32 17 337 324 13 352 303 286 176 308 292 88 113 104 136 88 100 152 188 201 202 197 196 190 193 199 197 190 192 189 189 190 113 131 183 181 165 147 144 205 164 161 149 158 143 140 155 172 185
339 141 133 157 179 228 160 253 342 311 45 114 109 73 34 11 13 7 2 357 30 30 36 38 34 32 29 26 27 17 360 17 47 45 60 84 69 48 42 33 37 32 32 29 37 46 115 203 175 169 197 196 157 174 150 152 152 126 134 89 106 94 90 149 108 88 194 213 206 199 203 201 194 193 203 195 185 188 182 149 132 185 187 180 169 154 165 186 186 171 162 157 163 153 161 164 192
181 233 177 187 169 189 272 325 25 21 13 326 125 56 41 320 17 20 345 7 37 28 39 34 28 28 27 31 31 27 28 26 34 47 51 49 44 52 53 54 73 87 102 149 154 157 220 249 210 212 106 98 98 110 101 165 179 175 161 170 175 182 190 172 175 185 198 201 207 197 202 208 194 190 202 199 186 172 169 144 160 179 178 188 178 175 172 163 175 183 185 166 164 169 156 164 177
141 255 183 181 169 163 192 269 81 3 144 214 91 126 156 316 28 3 347 29 41 35 36 27 24 26 29 31 29 31 31 31 35 34 27 38 38 46 50 51 75 108 140 167 182 170 161 243 271 19 168 153 146 162 176 186 210 211 200 206 185 207 210 235 234 226 211 199 155 178 194 198 195 193 197 194 191 176 161 147 175 189 181 170 179 190 178 178 184 185 175 167 169 147 151 167 176
202 243 171 166 129 166 206 150 177 211 247 314 53 113 131 87 4 357 312 23 42 38 29 26 27 30 32 32 32 33 32 32 39 39 36 29 39 47 56 59 98 146 174 197 223 201 170 180 202 196 200 183 173 171 183 186 186 191 196 21 256 237 212 229 192 223 254 160 200 192 188 190 190 193 190 186 160 189 174 158 173 185 172 172 180 196 195 169 184 181 175 171 153 158 173 169 173
216 192 154 165 172 188 149 151 161 241 116 264 332 358 73 45 282 314 309 27 32 37 25 27 30 32 34 32 31 29 31 31 32 33 33 33 32 31 28 20 351 341 317 297 298 318 348 322 167 192 211 197 180 173 180 191 191 162 122 159 245 235 296 269 142 155 201 193 194 194 185 178 173 190 200 181 187 190 166 153 154 165 186 189 193 192 179 189 186 168 166 160 168 174 180 168 158
259 140 75 81 79 67 116 118 108 339 74 268 273 27 109 296 298 344 327 59 43 31 27 30 35 41 35 30 28 28 29 28 29 28 24 26 23 23 25 24 19 11 343 343 340 350 8 11 355 344 326 326 324 170 171 190 184 107 117 186 215 210 211 256 251 193 201 195 191 173 171 136 185 202 198 194 180 168 166 158 152 152 172 191 201 212 195 207 188 176 175 176 178 179 176 164 175
136 111 92 55 43 57 40 63 91 75 25 260 252 338 128 123 284 303 8 52 49 41 35 38 42 42 38 34 29 24 22 22 25 21 22 18 10 11 12 24 20 10 10 18 6 352 353 355 353 335 321 310 331 3 149 130 97 145 174 218 230 217 203 191 191 199 194 194 192 162 173 191 201 206 202 191 188 186 169 159 163 165 168 173 174 180 203 209 185 180 177 177 178 181 179 173 167
125 119 123 87 21 17 29 343 34 111 264 265 324 111 89 140 243 80 80 90 77 71 65 49 47 42 40 32 28 24 22 21 19 21 17 13 12 11 10 12 12 6 4 10 6 356 358 349 343 328 317 298 302 78 100 147 193 187 171 199 230 236 198 183 192 200 197 199 184 176 179 188 164 207 198 200 204 192 183 182 174 164 166 167 176 190 219 210 183 178 172 177 183 188 179 173 169
82 99 107 128 213 52 275 16 178 162 177 23 328 342 41 42 57 112 103 85 87 72 60 58 52 46 40 33 28 26 23 20 20 20 15 11 11 7 7 7 11 12 7 359 353 344 339 341 343 336 341 321 223 171 196 213 219 194 190 216 251 305 276 169 177 220 208 208 198 180 176 176 162 193 202 201 208 189 188 188 178 173 171 173 166 185 220 236 184 182 179 178 178 181 183 179 177
120 135 151 125 128 101 161 275 261 319 295 259 11 344 89 147 72 66 84 81 72 76 70 62 54 50 41 32 23 21 22 22 20 18 17 11 10 3 2 4 8 8 6 4 360 356 344 336 339 341 328 335 331 291 265 253 260 7 12 358 322 313 287 208 191 222 236 248 228 216 198 185 178 199 199 203 201 192 194 192 183 181 178 169 168 184 185 231 205 183 179 179 183 188 177 181 187
191 130 151 173 138 152 168 179 164 195 191 284 307 69 234 160 218 93 68 84 83 75 79 70 60 48 41 32 27 25 23 18 13 15 16 12 7 6 4 2 2 4 2 1 359 358 358 353 343 342 342 346 317 348 348 340 357 4 13 27 220 198 230 211 191 219 245 243 242 251 232 168 184 211 264 315 50 196 201 192 186 182 183 178 165 180 186 209 228 179 178 179 182 176 182 178 183
116 158 68 111 205 146 128 202 145 168 119 34 1 104 233 129 303 78 103 86 78 71 61 63 56 51 37 30 26 24 23 21 16 11 7 8 7 5 6 3 1 356 359 358 359 356 356 355 355 348 345 335 335 344 343 350 323 303 238 185 208 204 189 180 179 195 217 232 234 220 226 202 130 85 44 119 335 269 226 204 194 187 186 183 181 186 189 192 200 202 170 175 179 173 169 188 182
204 100 173 214 158 103 93 60 66 99 66 35 297 149 85 351 272 89 137 95 81 68 55 44 42 45 37 29 22 22 21 20 17 13 9 3 2 4 3 359 360 356 355 352 352 354 355 356 359 358 352 342 332 328 309 293 241 239 234 211 209 232 232 207 200 190 190 200 234 298 299 117 124 166 168 168 172 154 264 251 214 195 186 184 180 181 182 186 192 191 175 174 182 174 173 191 175
84 140 220 142 97 105 126 163 347 55 140 194 40 183 158 152 174 162 134 106 88 74 60 42 33 33 33 22 19 16 16 16 14 12 8 5 2 359 359 357 357 353 351 350 354 353 357 357 0 359 353 354 343 320 309 268 278 277 271 263 273 293 311 318 349 16 120 175 184 198 182 244 216 165 170 181 175 172 172 208 247 232 187 179 185 178 176 174 187 194 183 185 179 173 176 177 181
157 184 152 111 183 172 339 97 125 119 89 156 354 135 343 164 251 261 180 130 114 91 79 56 34 30 24 17 11 11 13 15 13 11 4 2 359 357 357 352 350 351 354 356 355 357 359 4 1 3 355 355 354 344 328 294 295 293 298 308 294 280 319 332 330 88 175 217 198 154 169 190 213 216 178 187 174 171 177 170 185 236 221 189 186 180 180 185 179 183 184 172 171 178 170 179 178
43 105 86 317 102 145 128 193 164 109 171 87 357 152 225 193 234 209 178 142 121 109 77 66 46 38 29 23 12 10 8 9 8 4 3 359 355 356 356 352 351 348 347 355 357 360 4 3 1 358 355 1 357 354 351 348 335 313 306 309 302 295 184 225 241 238 221 230 232 203 196 193 195 202 185 183 180 173 170 169 151 158 239 203 186 184 181 181 173 183 170 165 168 167 174 178 171
58 46 20 30 28 215 103 34 75 154 155 161 139 182 244 231 255 73 65 88 108 118 99 74 52 35 34 28 23 15 11 7 4 2 358 356 354 353 352 352 347 344 347 357 4 5 1 360 3 4 357 352 353 351 351 348 339 337 325 308 302 305 280 250 248 242 217 215 232 218 207 205 185 194 185 179 179 169 156 158 155 151 144 266 189 177 174 170 173 174 172 168 163 169 175 179 166
156 152 181 161 120 112 122 209 36 73 107 169 151 206 197 55 14 117 116 116 104 97 105 90 58 44 36 28 24 21 13 9 3 0 356 355 354 352 350 351 349 355 358 359 359 360 5 6 3 359 357 352 343 348 351 344 335 329 333 319 298 266 241 248 253 263 234 230 228 210 212 197 203 196 188 184 176 166 157 151 162 163 174 164 254 180 170 167 169 165 166 165 165 170 175 174 172